sat.trackr.live / text

‹ back to catalog

IRIDIUM 151

NORAD 43074 · 2017-083E

PAYLOAD ACTIVE UNKNOWN

§ Identity

Operator
Country
US
Launch date
2017-12-23
Launch site
AFWTR
Launch vehicle
Mass (kg)
RCS (m²)

Purposes: comms

External: N2YO · Heavens-Above · Gunter

§ Orbital elements

Epoch: 2026-05-24T23:52:27.067008Z

Period
100.40 min
Inclination
86.3958°
Eccentricity
0.0002113
Mean motion
14.34217778 rev/d
Perigee alt
776.2 km
Apogee alt
779.2 km
Semi-major
7,155.8 km
B*
1.3568e-5
RAAN
331.7593°
Arg perigee
89.2360°
Mean anomaly
270.9078°
Rev number
44,081

§ Raw data

IRIDIUM 1511 43074U 17083E   26144.99475772  .00000058  00000+0  13568-4 0  99932 43074  86.3958 331.7593 0002113  89.2360 270.9078 14.34217778440819

JSON: /api/v1/satellites/43074 · /tle

For live sub-satellite position, see the globe view (requires WebGL).

§ Visibility from observer

Set your observer location to see the next 7 days of passes ≥ 10°. The values pass through the URL so the page stays shareable.

No JS? Fill the form by hand. The geolocation button needs JavaScript.